This is the latest recevied weather packets stored in our database for station/object VE9LJW. If no packets are shown the sender has not sent any weather packets the latest 10 day(s).
| Time | Temp. | Humidity | Pressure | Rain* | Wind** | Luminosity | Snow |
|---|---|---|---|---|---|---|---|
| 1777908446 | 15° C | 53% | 1001.5 hPa | 0 mm | - | 723 W/m² | - |
| 1777908143 | 15° C | 49% | 1001.4 hPa | 0 mm | - | 612 W/m² | - |
| 1777907839 | 14.44° C | 52% | 1001.3 hPa | 0 mm | - | 472 W/m² | - |
| 1777907535 | 13.89° C | 50% | 1001.6 hPa | 0 mm | - | 717 W/m² | - |
| 1777907231 | 14.44° C | 51% | 1001.6 hPa | 0 mm | - | 765 W/m² | - |
| 1777906927 | 14.44° C | 49% | 1001.7 hPa | 0 mm | - | 740 W/m² | - |
| 1777906625 | 14.44° C | 51% | 1001.7 hPa | 0 mm | - | 781 W/m² | - |
| 1777906320 | 13.89° C | 50% | 1001.7 hPa | 0 mm | - | 777 W/m² | - |
| 1777906018 | 13.89° C | 54% | 1001.8 hPa | 0 mm | - | 798 W/m² | - |
| 1777905714 | 13.89° C | 54% | 1002 hPa | 0 mm | - | 768 W/m² | - |
| 1777905411 | 13.33° C | 54% | 1001.7 hPa | 0 mm | - | 689 W/m² | - |
| 1777905109 | 13.89° C | 53% | 1001.7 hPa | 0 mm | - | 663 W/m² | - |
| 1777904806 | 13.33° C | 52% | 1001.8 hPa | 0 mm | - | 560 W/m² | - |
| 1777904503 | 13.33° C | 56% | 1001.9 hPa | 0 mm | - | 721 W/m² | - |
| 1777904199 | 13.33° C | 54% | 1001.7 hPa | 0 mm | - | 525 W/m² | - |
| 1777903897 | 13.33° C | 52% | 1002 hPa | 0 mm | - | 637 W/m² | - |
| 1777903593 | 12.78° C | 59% | 1002 hPa | 0 mm | - | 650 W/m² | - |
| 1777903289 | 12.78° C | 56% | 1001.7 hPa | 0 mm | - | 651 W/m² | - |
| 1777902986 | 12.22° C | 57% | 1001.8 hPa | 0 mm | - | 514 W/m² | - |
| 1777902682 | 12.78° C | 61% | 1001.7 hPa | 0 mm | - | 505 W/m² | - |
| 1777902380 | 12.22° C | 63% | 1001.8 hPa | 0 mm | - | 515 W/m² | - |
| 1777902076 | 11.67° C | 64% | 1002 hPa | 0 mm | - | 508 W/m² | - |
| 1777901775 | 11.67° C | 66% | 1001.8 hPa | 0 mm | - | 542 W/m² | - |
| 1777901471 | 11.11° C | 65% | 1002 hPa | 0 mm | - | 492 W/m² | - |
| 1777901170 | 11.11° C | 67% | 1002 hPa | 0 mm | - | 464 W/m² | - |
* Rain latest hour (hover to see other rain measurements)
** Current wind speed in m/s (hover to see current wind gust speed)